This demonstration page uses our WeatherBlox Daily Observations layout. Learn more.

Left ArrowRight Arrow

Hourly Observations for June 5, 2018

Temp ( °F °C ) Dew Point ( °F °C ) Humidity (%) Winds ( mph kmh ) Pressure ( in mb ) Visibility ( mi km ) Precip ( " mm )
12:56 am 00:56 Clear 66 18.9 53 11.7 63 63 S 8 13 29.86 1011 10 16 0.00 0.00
2:56 am 02:56 Clear 62 16.7 54 12.2 75 75 S 8 13 29.84 1011 10 16 0.00 0.00
3:56 am 03:56 Clear 62 16.7 54 12.2 75 75 S 8 13 29.83 1010 10 16 0.00 0.00
5:56 am 05:56 Clear 61 16.1 56 13.3 84 84 S 9 15 29.83 1010 10 16 0.00 0.00
6:56 am 06:56 Sunny 62 16.7 58 14.4 86 86 SSW 10 17 29.83 1010 10 16 0.00 0.00
7:56 am 07:56 Sunny 67 19.4 60 15.6 79 79 SSW 14 22 29.83 1010 10 16 0.00 0.00
8:56 am 08:56 Sunny 71 21.7 61 16.1 71 71 SW 12 19 29.84 1011 8 13 0.00 0.00
9:56 am 09:56 Sunny 76 24.4 62 16.7 62 62 WSW 12 19 29.83 1010 9 14 0.00 0.00
10:56 am 10:56 Sunny 80 26.7 65 18.3 60 60 SSW 9 15 29.81 1010 10 16 0.00 0.00
11:56 am 11:56 Sunny 84 28.9 65 18.3 53 53 SSW 12 19 29.81 1010 10 16 0.00 0.00
1:56 pm 13:56 Sunny with Rain 89 31.7 64 17.8 43 43 S 15 24 29.78 1009 10 16 0.00 0.00
2:56 pm 14:56 Sunny 90 32.2 63 17.2 41 41 S 14 22 29.77 1008 10 16 0.00 0.00
3:56 pm 15:56 Sunny 91 32.8 63 17.2 39 39 SSW 14 22 29.75 1008 10 16 0.00 0.00
4:56 pm 16:56 Sunny 92 33.3 62 16.7 37 37 SSW 12 19 29.75 1007 9 14 0.00 0.00
5:56 pm 17:56 Sunny 91 32.8 63 17.2 39 39 SSW 13 20 29.74 1007 10 16 0.00 0.00
6:56 pm 18:56 Sunny 91 32.8 63 17.2 39 39 SSW 15 24 29.74 1007 10 16 0.00 0.00
7:56 pm 19:56 Sunny 87 30.6 64 17.8 46 46 S 9 15 29.73 1007 10 16 0.00 0.00
8:56 pm 20:56 Sunny 79 26.1 64 17.8 60 60 S 9 15 29.75 1007 10 16 0.00 0.00
9:56 pm 21:56 Clear 78 25.6 63 17.2 60 60 SSE 8 13 29.75 1007 10 16 0.00 0.00
10:56 pm 22:56 Clear 74 23.3 63 17.2 69 69 S 8 13 29.77 1008 10 16 0.00 0.00
11:56 pm 23:56 Clear 76 24.4 64 17.8 67 67 S 13 20 29.76 1008 10 16 0.00 0.00

Powered by AerisWeather